Location: Navajo
(48.7922°N, 105.0603°W)
Time: 04:01:21
(UTC+00:00)

X-37B - Visible Passes

Search period start: 03 October 2023 00:00
Search period end: 13 October 2023 00:00
Orbit: 277 x 277 km, 45.0° (Epoch: 01 November)

Date Brightness Start Highest point End Pass type
(mag) Time Alt. Az. Time Alt. Az. Time Alt. Az.
10 Oct 2.4 01:04:10 10° S 01:05:06 11° SSE 01:06:02 10° SE visible
11 Oct 2.1 01:03:57 10° SSW 01:05:36 16° SSE 01:07:10 11° ESE visible
11 Oct 3.4 02:37:09 10° WSW 02:37:13 10° WSW 02:37:13 10° WSW visible
12 Oct 1.7 01:04:09 10° SW 01:06:09 22° SSE 01:07:49 12° ESE visible
12 Oct 3.4 02:37:45 10° WSW 02:37:52 11° WSW 02:37:52 11° WSW visible
